Starlink 34956

operational
NORAD ID: 65174 Int'l Des: 2025-175 Owner: SPXS Country: US Constellation: starlink
LEOCIRCULARRETROGRADESSO

Über Starlink 34956

Beschreibung wird geladen...

Live-Position

3D-Globus wird geladen...

Nächste Überflüge

Höhenverlauf

Altitude vs Time

uPlot chart will show altitude changes over time

Zweizeiliger Elementsatz

1 65174U 25175A 26061.16736955 .00004972 00000-0 34852-3 0 9997
2 65174 97.6031 295.1676 0002563 91.7058 268.4463 15.05654623 31478
Epoch: 2. März 2026 • Age: 26 hours

Aktueller Status

Höhe 578.8 km
Geschwindigkeit 7.57 km/s
Subsatellitenpunkt -76.83°S, 107.84°W
Startdatum 14. Aug. 2025
Alter 0.5 years
Typ internet

Technische Details

Klassifizierung Payload
Masse 575.00 kg
Trockenmasse 530.00 kg
Gesamtmasse 575.00 kg
Länge 0.30 m
Durchmesser 4.10 m
Spannweite 29.00 m
Form Box + pan
Hersteller SPXS
Bus-Typ Starlink V2MO
Phasenstatus In Orbit
Besitzer/Staat SPXS/US

Große Konstellationen

Loading constellations...